Вернуться в каталог

DELTA 1 DEB

АктивенSSO
NORAD 8951·DEBRIS·🇺🇸 United States

Запущен Jan 22, 1975 с Vandenberg Space Force Base

Loading…

Ближайшие Пролёты (ближайшие 24 часа)

TLE

СвежийSource: Space-Track

Эпоха: Sep 13, 2026, 18:06 UTC

1 08951U 75004AH  26256.75436160  .00000719  00000-0  12688-3 0  9997
2 08951  98.0582 179.1472 0027529 214.5976 145.3440 14.70273455664327

Отслеживайте DELTA 1 DEB в реальном времени с AllMySat

Download on the App Store